Location: Arlington
(40.6323°N, 74.1651°W)
Time: 07:22:41
(UTC+00:00)

NOSS 2-2 (E) - Pass Details

Date: 22 November 2019
Orbit: 488 x 1718 km, 63.3° (Epoch: 29 November)

Event Time Altitude Azimuth Distance (km) Brightness Sun altitude
Rises 22:51:00 0° 184° (S) 2,575 7.0 -14.5°
Reaches altitude 10° 22:53:23 10° 170° (S) 1,669 5.8 -14.9°
Maximum altitude 22:56:20 24° 115° (ESE) 1,061 4.3 -15.5°
Enters shadow 22:56:21 24° 114° (ESE) 1,061 4.3 -15.5°
